Data supplied by UK-AIR on 9/6/2008
All Data GMT hour ending 
Status: R =Ratified P=Provisional,P*=As supplied
,,Camden Kerbside,,,,,,,,,,,,,,,,,,,,,,,
Date,time,"PM10 particulate matter (Hourly measured)",status,unit,"Nitric oxide",status,unit,"Nitrogen dioxide",status,unit,"Nitrogen oxides as nitrogen dioxide",status,unit
 
01-01-2006,01:00,47,R,ugm-3 (GRAV EQ),21,R,ugm-3,53,R,ugm-3,86,R,ugm-3
01-01-2006,02:00,48,R,ugm-3 (GRAV EQ),34,R,ugm-3,65,R,ugm-3,117,R,ugm-3
01-01-2006,03:00,38,R,ugm-3 (GRAV EQ),14,R,ugm-3,50,R,ugm-3,71,R,ugm-3
01-01-2006,04:00,26,R,ugm-3 (GRAV EQ),9,R,ugm-3,44,R,ugm-3,57,R,ugm-3
01-01-2006,05:00,18,R,ugm-3 (GRAV EQ),11,R,ugm-3,42,R,ugm-3,59,R,ugm-3
01-01-2006,06:00,17,R,ugm-3 (GRAV EQ),8,R,ugm-3,36,R,ugm-3,48,R,ugm-3
01-01-2006,07:00,21,R,ugm-3 (GRAV EQ),3,R,ugm-3,23,R,ugm-3,27,R,ugm-3
01-01-2006,08:00,9,R,ugm-3 (GRAV EQ),5,R,ugm-3,19,R,ugm-3,27,R,ugm-3
01-01-2006,09:00,13,R,ugm-3 (GRAV EQ),13,R,ugm-3,29,R,ugm-3,48,R,ugm-3
01-01-2006,10:00,16,R,ugm-3 (GRAV EQ),30,R,ugm-3,44,R,ugm-3,90,R,ugm-3
01-01-2006,11:00,21,R,ugm-3 (GRAV EQ),54,R,ugm-3,53,R,ugm-3,136,R,ugm-3
01-01-2006,12:00,20,R,ugm-3 (GRAV EQ),63,R,ugm-3,59,R,ugm-3,155,R,ugm-3
01-01-2006,13:00,21,R,ugm-3 (GRAV EQ),69,R,ugm-3,57,R,ugm-3,162,R,ugm-3
01-01-2006,14:00,25,R,ugm-3 (GRAV EQ),91,R,ugm-3,69,R,ugm-3,208,R,ugm-3
01-01-2006,15:00,26,R,ugm-3 (GRAV EQ),98,R,ugm-3,69,R,ugm-3,218,R,ugm-3
01-01-2006,16:00,34,R,ugm-3 (GRAV EQ),114,R,ugm-3,82,R,ugm-3,256,R,ugm-3
01-01-2006,17:00,38,R,ugm-3 (GRAV EQ),114,R,ugm-3,84,R,ugm-3,258,R,ugm-3
01-01-2006,18:00,36,R,ugm-3 (GRAV EQ),110,R,ugm-3,84,R,ugm-3,252,R,ugm-3
01-01-2006,19:00,31,R,ugm-3 (GRAV EQ),100,R,ugm-3,80,R,ugm-3,233,R,ugm-3
01-01-2006,20:00,31,R,ugm-3 (GRAV EQ),91,R,ugm-3,74,R,ugm-3,214,R,ugm-3
01-01-2006,21:00,29,R,ugm-3 (GRAV EQ),64,R,ugm-3,63,R,ugm-3,160,R,ugm-3
01-01-2006,22:00,29,R,ugm-3 (GRAV EQ),73,R,ugm-3,69,R,ugm-3,180,R,ugm-3
01-01-2006,23:00,31,R,ugm-3 (GRAV EQ),51,R,ugm-3,59,R,ugm-3,138,R,ugm-3
01-01-2006,24:00,29,R,ugm-3 (GRAV EQ),48,R,ugm-3,50,R,ugm-3,122,R,ugm-3
02-01-2006,01:00,21,R,ugm-3 (GRAV EQ),21,R,ugm-3,34,R,ugm-3,67,R,ugm-3
02-01-2006,02:00,20,R,ugm-3 (GRAV EQ),18,R,ugm-3,29,R,ugm-3,55,R,ugm-3
02-01-2006,03:00,20,R,ugm-3 (GRAV EQ),15,R,ugm-3,29,R,ugm-3,52,R,ugm-3
02-01-2006,04:00,21,R,ugm-3 (GRAV EQ),14,R,ugm-3,27,R,ugm-3,48,R,ugm-3
02-01-2006,05:00,26,R,ugm-3 (GRAV EQ),15,R,ugm-3,31,R,ugm-3,53,R,ugm-3
02-01-2006,06:00,26,R,ugm-3 (GRAV EQ),26,R,ugm-3,36,R,ugm-3,76,R,ugm-3
02-01-2006,07:00,25,R,ugm-3 (GRAV EQ),35,R,ugm-3,42,R,ugm-3,96,R,ugm-3
02-01-2006,08:00,26,R,ugm-3 (GRAV EQ),65,R,ugm-3,55,R,ugm-3,155,R,ugm-3
02-01-2006,09:00,27,R,ugm-3 (GRAV EQ),91,R,ugm-3,63,R,ugm-3,202,R,ugm-3
02-01-2006,10:00,34,R,ugm-3 (GRAV EQ),106,R,ugm-3,65,R,ugm-3,227,R,ugm-3
02-01-2006,11:00,47,R,ugm-3 (GRAV EQ),145,R,ugm-3,84,R,ugm-3,306,R,ugm-3
02-01-2006,12:00,52,R,ugm-3 (GRAV EQ),148,R,ugm-3,84,R,ugm-3,309,R,ugm-3
02-01-2006,13:00,34,R,ugm-3 (GRAV EQ),84,R,ugm-3,63,R,ugm-3,191,R,ugm-3
02-01-2006,14:00,57,R,ugm-3 (GRAV EQ),155,R,ugm-3,82,R,ugm-3,319,R,ugm-3
02-01-2006,15:00,42,R,ugm-3 (GRAV EQ),100,R,ugm-3,76,R,ugm-3,229,R,ugm-3
02-01-2006,16:00,42,R,ugm-3 (GRAV EQ),93,R,ugm-3,78,R,ugm-3,220,R,ugm-3
02-01-2006,17:00,62,R,ugm-3 (GRAV EQ),181,R,ugm-3,99,R,ugm-3,376,R,ugm-3
02-01-2006,18:00,43,R,ugm-3 (GRAV EQ),95,R,ugm-3,78,R,ugm-3,223,R,ugm-3
02-01-2006,19:00,52,R,ugm-3 (GRAV EQ),164,R,ugm-3,88,R,ugm-3,338,R,ugm-3
02-01-2006,20:00,52,R,ugm-3 (GRAV EQ),156,R,ugm-3,88,R,ugm-3,327,R,ugm-3
02-01-2006,21:00,47,R,ugm-3 (GRAV EQ),144,R,ugm-3,88,R,ugm-3,308,R,ugm-3
02-01-2006,22:00,48,R,ugm-3 (GRAV EQ),141,R,ugm-3,86,R,ugm-3,302,R,ugm-3
02-01-2006,23:00,40,R,ugm-3 (GRAV EQ),111,R,ugm-3,78,R,ugm-3,248,R,ugm-3
02-01-2006,24:00,38,R,ugm-3 (GRAV EQ),89,R,ugm-3,69,R,ugm-3,204,R,ugm-3
03-01-2006,01:00,42,R,ugm-3 (GRAV EQ),85,R,ugm-3,61,R,ugm-3,191,R,ugm-3
03-01-2006,02:00,33,R,ugm-3 (GRAV EQ),53,R,ugm-3,53,R,ugm-3,134,R,ugm-3
03-01-2006,03:00,27,R,ugm-3 (GRAV EQ),40,R,ugm-3,50,R,ugm-3,111,R,ugm-3
03-01-2006,04:00,25,R,ugm-3 (GRAV EQ),28,R,ugm-3,46,R,ugm-3,88,R,ugm-3
03-01-2006,05:00,25,R,ugm-3 (GRAV EQ),24,R,ugm-3,46,R,ugm-3,82,R,ugm-3
03-01-2006,06:00,27,R,ugm-3 (GRAV EQ),44,R,ugm-3,55,R,ugm-3,122,R,ugm-3
03-01-2006,07:00,31,R,ugm-3 (GRAV EQ),89,R,ugm-3,73,R,ugm-3,208,R,ugm-3
03-01-2006,08:00,38,R,ugm-3 (GRAV EQ),150,R,ugm-3,101,R,ugm-3,330,R,ugm-3
03-01-2006,09:00,36,R,ugm-3 (GRAV EQ),139,R,ugm-3,97,R,ugm-3,309,R,ugm-3
03-01-2006,10:00,34,R,ugm-3 (GRAV EQ),115,R,ugm-3,92,R,ugm-3,267,R,ugm-3
03-01-2006,11:00,33,R,ugm-3 (GRAV EQ),110,R,ugm-3,90,R,ugm-3,258,R,ugm-3
03-01-2006,12:00,33,R,ugm-3 (GRAV EQ),100,R,ugm-3,90,R,ugm-3,243,R,ugm-3
03-01-2006,13:00,36,R,ugm-3 (GRAV EQ),111,R,ugm-3,90,R,ugm-3,260,R,ugm-3
03-01-2006,14:00,39,R,ugm-3 (GRAV EQ),95,R,ugm-3,86,R,ugm-3,231,R,ugm-3
03-01-2006,15:00,39,R,ugm-3 (GRAV EQ),74,R,ugm-3,86,R,ugm-3,199,R,ugm-3
03-01-2006,16:00,33,R,ugm-3 (GRAV EQ),80,R,ugm-3,82,R,ugm-3,204,R,ugm-3
03-01-2006,17:00,40,R,ugm-3 (GRAV EQ),149,R,ugm-3,105,R,ugm-3,332,R,ugm-3
03-01-2006,18:00,27,R,ugm-3 (GRAV EQ),120,R,ugm-3,92,R,ugm-3,275,R,ugm-3
03-01-2006,19:00,43,R,ugm-3 (GRAV EQ),214,R,ugm-3,120,R,ugm-3,447,R,ugm-3
03-01-2006,20:00,31,R,ugm-3 (GRAV EQ),136,R,ugm-3,90,R,ugm-3,298,R,ugm-3
03-01-2006,21:00,26,R,ugm-3 (GRAV EQ),93,R,ugm-3,67,R,ugm-3,208,R,ugm-3
03-01-2006,22:00,27,R,ugm-3 (GRAV EQ),100,R,ugm-3,71,R,ugm-3,223,R,ugm-3
03-01-2006,23:00,27,R,ugm-3 (GRAV EQ),93,R,ugm-3,67,R,ugm-3,208,R,ugm-3
03-01-2006,24:00,20,R,ugm-3 (GRAV EQ),58,R,ugm-3,50,R,ugm-3,138,R,ugm-3
04-01-2006,01:00,20,R,ugm-3 (GRAV EQ),41,R,ugm-3,38,R,ugm-3,101,R,ugm-3
04-01-2006,02:00,17,R,ugm-3 (GRAV EQ),34,R,ugm-3,32,R,ugm-3,84,R,ugm-3
04-01-2006,03:00,14,R,ugm-3 (GRAV EQ),19,R,ugm-3,32,R,ugm-3,61,R,ugm-3
04-01-2006,04:00,12,R,ugm-3 (GRAV EQ),9,R,ugm-3,19,R,ugm-3,32,R,ugm-3
04-01-2006,05:00,14,R,ugm-3 (GRAV EQ),30,R,ugm-3,31,R,ugm-3,76,R,ugm-3
04-01-2006,06:00,22,R,ugm-3 (GRAV EQ),44,R,ugm-3,42,R,ugm-3,109,R,ugm-3
04-01-2006,07:00,31,R,ugm-3 (GRAV EQ),111,R,ugm-3,84,R,ugm-3,254,R,ugm-3
04-01-2006,08:00,44,R,ugm-3 (GRAV EQ),189,R,ugm-3,122,R,ugm-3,411,R,ugm-3
04-01-2006,09:00,52,R,ugm-3 (GRAV EQ),178,R,ugm-3,124,R,ugm-3,395,R,ugm-3
04-01-2006,10:00,53,R,ugm-3 (GRAV EQ),140,R,ugm-3,105,R,ugm-3,319,R,ugm-3
04-01-2006,11:00,39,R,ugm-3 (GRAV EQ),95,R,ugm-3,74,R,ugm-3,220,R,ugm-3
04-01-2006,12:00,39,R,ugm-3 (GRAV EQ),49,R,ugm-3,57,R,ugm-3,132,R,ugm-3
04-01-2006,13:00,40,R,ugm-3 (GRAV EQ),104,R,ugm-3,65,R,ugm-3,223,R,ugm-3
04-01-2006,14:00,46,R,ugm-3 (GRAV EQ),85,R,ugm-3,73,R,ugm-3,202,R,ugm-3
04-01-2006,15:00,52,R,ugm-3 (GRAV EQ),128,R,ugm-3,86,R,ugm-3,281,R,ugm-3
04-01-2006,16:00,52,R,ugm-3 (GRAV EQ),135,R,ugm-3,84,R,ugm-3,290,R,ugm-3
04-01-2006,17:00,53,R,ugm-3 (GRAV EQ),125,R,ugm-3,88,R,ugm-3,279,R,ugm-3
04-01-2006,18:00,59,R,ugm-3 (GRAV EQ),146,R,ugm-3,90,R,ugm-3,313,R,ugm-3
04-01-2006,19:00,49,R,ugm-3 (GRAV EQ),130,R,ugm-3,88,R,ugm-3,287,R,ugm-3
04-01-2006,20:00,49,R,ugm-3 (GRAV EQ),146,R,ugm-3,96,R,ugm-3,319,R,ugm-3
04-01-2006,21:00,40,R,ugm-3 (GRAV EQ),118,R,ugm-3,84,R,ugm-3,264,R,ugm-3
04-01-2006,22:00,35,R,ugm-3 (GRAV EQ),83,R,ugm-3,76,R,ugm-3,202,R,ugm-3
04-01-2006,23:00,31,R,ugm-3 (GRAV EQ),64,R,ugm-3,69,R,ugm-3,166,R,ugm-3
04-01-2006,24:00,25,R,ugm-3 (GRAV EQ),43,R,ugm-3,59,R,ugm-3,124,R,ugm-3
05-01-2006,01:00,18,R,ugm-3 (GRAV EQ),20,R,ugm-3,46,R,ugm-3,76,R,ugm-3
05-01-2006,02:00,21,R,ugm-3 (GRAV EQ),16,R,ugm-3,40,R,ugm-3,65,R,ugm-3
05-01-2006,03:00,22,R,ugm-3 (GRAV EQ),13,R,ugm-3,40,R,ugm-3,59,R,ugm-3
05-01-2006,04:00,20,R,ugm-3 (GRAV EQ),14,R,ugm-3,31,R,ugm-3,52,R,ugm-3
05-01-2006,05:00,21,R,ugm-3 (GRAV EQ),19,R,ugm-3,36,R,ugm-3,65,R,ugm-3
05-01-2006,06:00,22,R,ugm-3 (GRAV EQ),26,R,ugm-3,40,R,ugm-3,80,R,ugm-3
05-01-2006,07:00,23,R,ugm-3 (GRAV EQ),65,R,ugm-3,52,R,ugm-3,151,R,ugm-3
05-01-2006,08:00,34,R,ugm-3 (GRAV EQ),126,R,ugm-3,86,R,ugm-3,279,R,ugm-3
05-01-2006,09:00,38,R,ugm-3 (GRAV EQ),123,R,ugm-3,78,R,ugm-3,265,R,ugm-3
05-01-2006,10:00,65,R,ugm-3 (GRAV EQ),224,R,ugm-3,107,R,ugm-3,449,R,ugm-3
05-01-2006,11:00,81,R,ugm-3 (GRAV EQ),201,R,ugm-3,94,R,ugm-3,401,R,ugm-3
05-01-2006,12:00,77,R,ugm-3 (GRAV EQ),226,R,ugm-3,107,R,ugm-3,453,R,ugm-3
05-01-2006,13:00,57,R,ugm-3 (GRAV EQ),138,R,ugm-3,82,R,ugm-3,292,R,ugm-3
05-01-2006,14:00,49,R,ugm-3 (GRAV EQ),94,R,ugm-3,73,R,ugm-3,216,R,ugm-3
05-01-2006,15:00,55,R,ugm-3 (GRAV EQ),111,R,ugm-3,78,R,ugm-3,248,R,ugm-3
05-01-2006,16:00,51,R,ugm-3 (GRAV EQ),111,R,ugm-3,76,R,ugm-3,246,R,ugm-3
05-01-2006,17:00,44,R,ugm-3 (GRAV EQ),78,R,ugm-3,73,R,ugm-3,191,R,ugm-3
05-01-2006,18:00,42,R,ugm-3 (GRAV EQ),70,R,ugm-3,63,R,ugm-3,170,R,ugm-3
05-01-2006,19:00,39,R,ugm-3 (GRAV EQ),76,R,ugm-3,67,R,ugm-3,183,R,ugm-3
05-01-2006,20:00,38,R,ugm-3 (GRAV EQ),69,R,ugm-3,61,R,ugm-3,166,R,ugm-3
05-01-2006,21:00,33,R,ugm-3 (GRAV EQ),53,R,ugm-3,53,R,ugm-3,134,R,ugm-3
05-01-2006,22:00,30,R,ugm-3 (GRAV EQ),59,R,ugm-3,59,R,ugm-3,149,R,ugm-3
05-01-2006,23:00,30,R,ugm-3 (GRAV EQ),45,R,ugm-3,52,R,ugm-3,120,R,ugm-3
05-01-2006,24:00,33,R,ugm-3 (GRAV EQ),64,R,ugm-3,55,R,ugm-3,153,R,ugm-3
06-01-2006,01:00,27,R,ugm-3 (GRAV EQ),38,R,ugm-3,46,R,ugm-3,103,R,ugm-3
06-01-2006,02:00,26,R,ugm-3 (GRAV EQ),28,R,ugm-3,40,R,ugm-3,82,R,ugm-3
06-01-2006,03:00,26,R,ugm-3 (GRAV EQ),20,R,ugm-3,36,R,ugm-3,67,R,ugm-3
06-01-2006,04:00,26,R,ugm-3 (GRAV EQ),43,R,ugm-3,38,R,ugm-3,103,R,ugm-3
06-01-2006,05:00,26,R,ugm-3 (GRAV EQ),48,R,ugm-3,38,R,ugm-3,111,R,ugm-3
06-01-2006,06:00,31,R,ugm-3 (GRAV EQ),71,R,ugm-3,46,R,ugm-3,155,R,ugm-3
06-01-2006,07:00,35,R,ugm-3 (GRAV EQ),139,R,ugm-3,67,R,ugm-3,279,R,ugm-3
06-01-2006,08:00,52,R,ugm-3 (GRAV EQ),248,R,ugm-3,107,R,ugm-3,485,R,ugm-3
06-01-2006,09:00,53,R,ugm-3 (GRAV EQ),294,R,ugm-3,124,R,ugm-3,573,R,ugm-3
06-01-2006,10:00,57,R,ugm-3 (GRAV EQ),291,R,ugm-3,113,R,ugm-3,558,R,ugm-3
06-01-2006,11:00,118,R,ugm-3 (GRAV EQ),259,R,ugm-3,113,R,ugm-3,508,R,ugm-3
06-01-2006,12:00,127,R,ugm-3 (GRAV EQ),233,R,ugm-3,97,R,ugm-3,453,R,ugm-3
06-01-2006,13:00,79,R,ugm-3 (GRAV EQ),141,R,ugm-3,78,R,ugm-3,294,R,ugm-3
06-01-2006,14:00,74,R,ugm-3 (GRAV EQ),133,R,ugm-3,76,R,ugm-3,279,R,ugm-3
06-01-2006,15:00,64,R,ugm-3 (GRAV EQ),104,R,ugm-3,71,R,ugm-3,229,R,ugm-3
06-01-2006,16:00,62,R,ugm-3 (GRAV EQ),,,,,,,,,
06-01-2006,17:00,70,R,ugm-3 (GRAV EQ),131,R,ugm-3,88,R,ugm-3,288,R,ugm-3
06-01-2006,18:00,61,R,ugm-3 (GRAV EQ),86,R,ugm-3,71,R,ugm-3,202,R,ugm-3
06-01-2006,19:00,74,R,ugm-3 (GRAV EQ),153,R,ugm-3,88,R,ugm-3,321,R,ugm-3
06-01-2006,20:00,61,R,ugm-3 (GRAV EQ),118,R,ugm-3,78,R,ugm-3,258,R,ugm-3
06-01-2006,21:00,55,R,ugm-3 (GRAV EQ),104,R,ugm-3,65,R,ugm-3,223,R,ugm-3
06-01-2006,22:00,49,R,ugm-3 (GRAV EQ),84,R,ugm-3,63,R,ugm-3,191,R,ugm-3
06-01-2006,23:00,56,R,ugm-3 (GRAV EQ),131,R,ugm-3,67,R,ugm-3,267,R,ugm-3
06-01-2006,24:00,53,R,ugm-3 (GRAV EQ),116,R,ugm-3,63,R,ugm-3,241,R,ugm-3
07-01-2006,01:00,49,R,ugm-3 (GRAV EQ),85,R,ugm-3,55,R,ugm-3,185,R,ugm-3
07-01-2006,02:00,44,R,ugm-3 (GRAV EQ),56,R,ugm-3,46,R,ugm-3,132,R,ugm-3
07-01-2006,03:00,40,R,ugm-3 (GRAV EQ),40,R,ugm-3,44,R,ugm-3,105,R,ugm-3
07-01-2006,04:00,40,R,ugm-3 (GRAV EQ),59,R,ugm-3,44,R,ugm-3,134,R,ugm-3
07-01-2006,05:00,42,R,ugm-3 (GRAV EQ),44,R,ugm-3,40,R,ugm-3,107,R,ugm-3
07-01-2006,06:00,44,R,ugm-3 (GRAV EQ),53,R,ugm-3,40,R,ugm-3,120,R,ugm-3
07-01-2006,07:00,44,R,ugm-3 (GRAV EQ),41,R,ugm-3,38,R,ugm-3,101,R,ugm-3
07-01-2006,08:00,39,R,ugm-3 (GRAV EQ),103,R,ugm-3,67,R,ugm-3,223,R,ugm-3
07-01-2006,09:00,48,R,ugm-3 (GRAV EQ),186,R,ugm-3,88,R,ugm-3,372,R,ugm-3
07-01-2006,10:00,49,R,ugm-3 (GRAV EQ),243,R,ugm-3,105,R,ugm-3,476,R,ugm-3
07-01-2006,11:00,64,R,ugm-3 (GRAV EQ),326,R,ugm-3,122,R,ugm-3,621,R,ugm-3
07-01-2006,12:00,64,R,ugm-3 (GRAV EQ),291,R,ugm-3,103,R,ugm-3,548,R,ugm-3
07-01-2006,13:00,46,R,ugm-3 (GRAV EQ),195,R,ugm-3,76,R,ugm-3,374,R,ugm-3
07-01-2006,14:00,57,R,ugm-3 (GRAV EQ),229,R,ugm-3,78,R,ugm-3,428,R,ugm-3
07-01-2006,15:00,52,R,ugm-3 (GRAV EQ),233,R,ugm-3,92,R,ugm-3,447,R,ugm-3
07-01-2006,16:00,59,R,ugm-3 (GRAV EQ),214,R,ugm-3,80,R,ugm-3,407,R,ugm-3
07-01-2006,17:00,55,R,ugm-3 (GRAV EQ),233,R,ugm-3,99,R,ugm-3,455,R,ugm-3
07-01-2006,18:00,61,R,ugm-3 (GRAV EQ),193,R,ugm-3,80,R,ugm-3,374,R,ugm-3
07-01-2006,19:00,60,R,ugm-3 (GRAV EQ),191,R,ugm-3,78,R,ugm-3,371,R,ugm-3
07-01-2006,20:00,61,R,ugm-3 (GRAV EQ),194,R,ugm-3,76,R,ugm-3,372,R,ugm-3
07-01-2006,21:00,65,R,ugm-3 (GRAV EQ),179,R,ugm-3,76,R,ugm-3,350,R,ugm-3
07-01-2006,22:00,61,R,ugm-3 (GRAV EQ),145,R,ugm-3,67,R,ugm-3,288,R,ugm-3
07-01-2006,23:00,64,R,ugm-3 (GRAV EQ),153,R,ugm-3,73,R,ugm-3,306,R,ugm-3
07-01-2006,24:00,47,R,ugm-3 (GRAV EQ),85,R,ugm-3,55,R,ugm-3,185,R,ugm-3
08-01-2006,01:00,39,R,ugm-3 (GRAV EQ),53,R,ugm-3,50,R,ugm-3,130,R,ugm-3
08-01-2006,02:00,35,R,ugm-3 (GRAV EQ),40,R,ugm-3,46,R,ugm-3,107,R,ugm-3
08-01-2006,03:00,34,R,ugm-3 (GRAV EQ),28,R,ugm-3,48,R,ugm-3,90,R,ugm-3
08-01-2006,04:00,33,R,ugm-3 (GRAV EQ),23,R,ugm-3,44,R,ugm-3,78,R,ugm-3
08-01-2006,05:00,33,R,ugm-3 (GRAV EQ),19,R,ugm-3,42,R,ugm-3,71,R,ugm-3
08-01-2006,06:00,35,R,ugm-3 (GRAV EQ),18,R,ugm-3,42,R,ugm-3,69,R,ugm-3
08-01-2006,07:00,34,R,ugm-3 (GRAV EQ),20,R,ugm-3,42,R,ugm-3,73,R,ugm-3
08-01-2006,08:00,35,R,ugm-3 (GRAV EQ),25,R,ugm-3,42,R,ugm-3,80,R,ugm-3
08-01-2006,09:00,36,R,ugm-3 (GRAV EQ),38,R,ugm-3,40,R,ugm-3,97,R,ugm-3
08-01-2006,10:00,39,R,ugm-3 (GRAV EQ),50,R,ugm-3,40,R,ugm-3,117,R,ugm-3
08-01-2006,11:00,40,R,ugm-3 (GRAV EQ),59,R,ugm-3,44,R,ugm-3,134,R,ugm-3
08-01-2006,12:00,44,R,ugm-3 (GRAV EQ),65,R,ugm-3,44,R,ugm-3,143,R,ugm-3
08-01-2006,13:00,52,R,ugm-3 (GRAV EQ),71,R,ugm-3,46,R,ugm-3,155,R,ugm-3
08-01-2006,14:00,44,R,ugm-3 (GRAV EQ),89,R,ugm-3,55,R,ugm-3,191,R,ugm-3
08-01-2006,15:00,40,R,ugm-3 (GRAV EQ),78,R,ugm-3,53,R,ugm-3,172,R,ugm-3
08-01-2006,16:00,39,R,ugm-3 (GRAV EQ),66,R,ugm-3,53,R,ugm-3,155,R,ugm-3
08-01-2006,17:00,42,R,ugm-3 (GRAV EQ),58,R,ugm-3,50,R,ugm-3,138,R,ugm-3
08-01-2006,18:00,43,R,ugm-3 (GRAV EQ),70,R,ugm-3,52,R,ugm-3,159,R,ugm-3
08-01-2006,19:00,46,R,ugm-3 (GRAV EQ),78,R,ugm-3,52,R,ugm-3,170,R,ugm-3
08-01-2006,20:00,39,R,ugm-3 (GRAV EQ),44,R,ugm-3,48,R,ugm-3,115,R,ugm-3
08-01-2006,21:00,36,R,ugm-3 (GRAV EQ),54,R,ugm-3,50,R,ugm-3,132,R,ugm-3
08-01-2006,22:00,35,R,ugm-3 (GRAV EQ),56,R,ugm-3,55,R,ugm-3,141,R,ugm-3
08-01-2006,23:00,34,R,ugm-3 (GRAV EQ),50,R,ugm-3,50,R,ugm-3,126,R,ugm-3
08-01-2006,24:00,47,R,ugm-3 (GRAV EQ),55,R,ugm-3,52,R,ugm-3,136,R,ugm-3
09-01-2006,01:00,44,R,ugm-3 (GRAV EQ),46,R,ugm-3,44,R,ugm-3,115,R,ugm-3
09-01-2006,02:00,48,R,ugm-3 (GRAV EQ),38,R,ugm-3,42,R,ugm-3,99,R,ugm-3
09-01-2006,03:00,46,R,ugm-3 (GRAV EQ),34,R,ugm-3,42,R,ugm-3,94,R,ugm-3
09-01-2006,04:00,47,R,ugm-3 (GRAV EQ),30,R,ugm-3,42,R,ugm-3,88,R,ugm-3
09-01-2006,05:00,46,R,ugm-3 (GRAV EQ),39,R,ugm-3,40,R,ugm-3,99,R,ugm-3
09-01-2006,06:00,49,R,ugm-3 (GRAV EQ),45,R,ugm-3,46,R,ugm-3,115,R,ugm-3
09-01-2006,07:00,66,R,ugm-3 (GRAV EQ),195,R,ugm-3,88,R,ugm-3,386,R,ugm-3
09-01-2006,08:00,87,R,ugm-3 (GRAV EQ),251,R,ugm-3,111,R,ugm-3,495,R,ugm-3
09-01-2006,09:00,83,R,ugm-3 (GRAV EQ),279,R,ugm-3,111,R,ugm-3,537,R,ugm-3
09-01-2006,10:00,87,R,ugm-3 (GRAV EQ),274,R,ugm-3,96,R,ugm-3,514,R,ugm-3
09-01-2006,11:00,82,R,ugm-3 (GRAV EQ),254,R,ugm-3,96,R,ugm-3,483,R,ugm-3
09-01-2006,12:00,83,R,ugm-3 (GRAV EQ),220,R,ugm-3,92,R,ugm-3,428,R,ugm-3
09-01-2006,13:00,127,R,ugm-3 (GRAV EQ),359,R,ugm-3,118,R,ugm-3,667,R,ugm-3
09-01-2006,14:00,111,R,ugm-3 (GRAV EQ),278,R,ugm-3,105,R,ugm-3,529,R,ugm-3
09-01-2006,15:00,81,R,ugm-3 (GRAV EQ),183,R,ugm-3,84,R,ugm-3,363,R,ugm-3
09-01-2006,16:00,56,R,ugm-3 (GRAV EQ),153,R,ugm-3,88,R,ugm-3,321,R,ugm-3
09-01-2006,17:00,60,R,ugm-3 (GRAV EQ),135,R,ugm-3,84,R,ugm-3,290,R,ugm-3
09-01-2006,18:00,56,R,ugm-3 (GRAV EQ),175,R,ugm-3,94,R,ugm-3,361,R,ugm-3
09-01-2006,19:00,53,R,ugm-3 (GRAV EQ),153,R,ugm-3,90,R,ugm-3,323,R,ugm-3
09-01-2006,20:00,36,R,ugm-3 (GRAV EQ),95,R,ugm-3,73,R,ugm-3,218,R,ugm-3
09-01-2006,21:00,18,R,ugm-3 (GRAV EQ),44,R,ugm-3,53,R,ugm-3,120,R,ugm-3
09-01-2006,22:00,22,R,ugm-3 (GRAV EQ),41,R,ugm-3,52,R,ugm-3,115,R,ugm-3
09-01-2006,23:00,18,R,ugm-3 (GRAV EQ),33,R,ugm-3,48,R,ugm-3,97,R,ugm-3
09-01-2006,24:00,18,R,ugm-3 (GRAV EQ),26,R,ugm-3,40,R,ugm-3,80,R,ugm-3
10-01-2006,01:00,18,R,ugm-3 (GRAV EQ),19,R,ugm-3,32,R,ugm-3,61,R,ugm-3
10-01-2006,02:00,21,R,ugm-3 (GRAV EQ),11,R,ugm-3,25,R,ugm-3,42,R,ugm-3
10-01-2006,03:00,18,R,ugm-3 (GRAV EQ),8,R,ugm-3,19,R,ugm-3,31,R,ugm-3
10-01-2006,04:00,17,R,ugm-3 (GRAV EQ),5,R,ugm-3,15,R,ugm-3,23,R,ugm-3
10-01-2006,05:00,18,R,ugm-3 (GRAV EQ),8,R,ugm-3,17,R,ugm-3,29,R,ugm-3
10-01-2006,06:00,20,R,ugm-3 (GRAV EQ),14,R,ugm-3,25,R,ugm-3,46,R,ugm-3
10-01-2006,07:00,25,R,ugm-3 (GRAV EQ),43,R,ugm-3,50,R,ugm-3,115,R,ugm-3
10-01-2006,08:00,31,R,ugm-3 (GRAV EQ),69,R,ugm-3,65,R,ugm-3,170,R,ugm-3
10-01-2006,09:00,36,R,ugm-3 (GRAV EQ),83,R,ugm-3,63,R,ugm-3,189,R,ugm-3
10-01-2006,10:00,33,R,ugm-3 (GRAV EQ),66,R,ugm-3,50,R,ugm-3,151,R,ugm-3
10-01-2006,11:00,34,R,ugm-3 (GRAV EQ),53,R,ugm-3,44,R,ugm-3,124,R,ugm-3
10-01-2006,12:00,35,R,ugm-3 (GRAV EQ),59,R,ugm-3,46,R,ugm-3,136,R,ugm-3
10-01-2006,13:00,36,R,ugm-3 (GRAV EQ),55,R,ugm-3,44,R,ugm-3,128,R,ugm-3
10-01-2006,14:00,36,R,ugm-3 (GRAV EQ),50,R,ugm-3,48,R,ugm-3,124,R,ugm-3
10-01-2006,15:00,36,R,ugm-3 (GRAV EQ),50,R,ugm-3,50,R,ugm-3,126,R,ugm-3
10-01-2006,16:00,36,R,ugm-3 (GRAV EQ),53,R,ugm-3,50,R,ugm-3,130,R,ugm-3
10-01-2006,17:00,34,R,ugm-3 (GRAV EQ),45,R,ugm-3,53,R,ugm-3,122,R,ugm-3
10-01-2006,18:00,33,R,ugm-3 (GRAV EQ),55,R,ugm-3,55,R,ugm-3,139,R,ugm-3
10-01-2006,19:00,30,R,ugm-3 (GRAV EQ),45,R,ugm-3,52,R,ugm-3,120,R,ugm-3
10-01-2006,20:00,33,R,ugm-3 (GRAV EQ),40,R,ugm-3,42,R,ugm-3,103,R,ugm-3
10-01-2006,21:00,29,R,ugm-3 (GRAV EQ),26,R,ugm-3,32,R,ugm-3,73,R,ugm-3
10-01-2006,22:00,23,R,ugm-3 (GRAV EQ),20,R,ugm-3,29,R,ugm-3,59,R,ugm-3
10-01-2006,23:00,25,R,ugm-3 (GRAV EQ),23,R,ugm-3,31,R,ugm-3,65,R,ugm-3
10-01-2006,24:00,23,R,ugm-3 (GRAV EQ),16,R,ugm-3,25,R,ugm-3,50,R,ugm-3
11-01-2006,01:00,21,R,ugm-3 (GRAV EQ),10,R,ugm-3,17,R,ugm-3,32,R,ugm-3
11-01-2006,02:00,23,R,ugm-3 (GRAV EQ),4,R,ugm-3,11,R,ugm-3,17,R,ugm-3
11-01-2006,03:00,23,R,ugm-3 (GRAV EQ),4,R,ugm-3,11,R,ugm-3,17,R,ugm-3
11-01-2006,04:00,21,R,ugm-3 (GRAV EQ),4,R,ugm-3,10,R,ugm-3,15,R,ugm-3
11-01-2006,05:00,17,R,ugm-3 (GRAV EQ),4,R,ugm-3,11,R,ugm-3,17,R,ugm-3
11-01-2006,06:00,25,R,ugm-3 (GRAV EQ),10,R,ugm-3,19,R,ugm-3,34,R,ugm-3
11-01-2006,07:00,21,R,ugm-3 (GRAV EQ),24,R,ugm-3,34,R,ugm-3,71,R,ugm-3
11-01-2006,08:00,22,R,ugm-3 (GRAV EQ),56,R,ugm-3,65,R,ugm-3,151,R,ugm-3
11-01-2006,09:00,23,R,ugm-3 (GRAV EQ),54,R,ugm-3,71,R,ugm-3,153,R,ugm-3
11-01-2006,10:00,25,R,ugm-3 (GRAV EQ),75,R,ugm-3,92,R,ugm-3,206,R,ugm-3
11-01-2006,11:00,27,R,ugm-3 (GRAV EQ),60,R,ugm-3,84,R,ugm-3,176,R,ugm-3
11-01-2006,12:00,13,R,ugm-3 (GRAV EQ),30,R,ugm-3,61,R,ugm-3,107,R,ugm-3
11-01-2006,13:00,21,R,ugm-3 (GRAV EQ),23,R,ugm-3,42,R,ugm-3,76,R,ugm-3
11-01-2006,14:00,25,R,ugm-3 (GRAV EQ),24,R,ugm-3,42,R,ugm-3,78,R,ugm-3
11-01-2006,15:00,27,R,ugm-3 (GRAV EQ),21,R,ugm-3,42,R,ugm-3,74,R,ugm-3
11-01-2006,16:00,30,R,ugm-3 (GRAV EQ),21,R,ugm-3,53,R,ugm-3,86,R,ugm-3
11-01-2006,17:00,46,R,ugm-3 (GRAV EQ),61,R,ugm-3,97,R,ugm-3,191,R,ugm-3
11-01-2006,18:00,49,R,ugm-3 (GRAV EQ),94,R,ugm-3,117,R,ugm-3,260,R,ugm-3
11-01-2006,19:00,,,,113,R,ugm-3,118,R,ugm-3,290,R,ugm-3
11-01-2006,20:00,56,R,ugm-3 (GRAV EQ),153,R,ugm-3,124,R,ugm-3,357,R,ugm-3
11-01-2006,21:00,59,R,ugm-3 (GRAV EQ),164,R,ugm-3,128,R,ugm-3,378,R,ugm-3
11-01-2006,22:00,55,R,ugm-3 (GRAV EQ),155,R,ugm-3,124,R,ugm-3,361,R,ugm-3
11-01-2006,23:00,51,R,ugm-3 (GRAV EQ),163,R,ugm-3,122,R,ugm-3,371,R,ugm-3
11-01-2006,24:00,72,R,ugm-3 (GRAV EQ),241,R,ugm-3,147,R,ugm-3,516,R,ugm-3
12-01-2006,01:00,69,R,ugm-3 (GRAV EQ),301,R,ugm-3,162,R,ugm-3,623,R,ugm-3
12-01-2006,02:00,53,R,ugm-3 (GRAV EQ),226,R,ugm-3,138,R,ugm-3,483,R,ugm-3
12-01-2006,03:00,51,R,ugm-3 (GRAV EQ),163,R,ugm-3,113,R,ugm-3,361,R,ugm-3
12-01-2006,04:00,47,R,ugm-3 (GRAV EQ),190,R,ugm-3,109,R,ugm-3,399,R,ugm-3
12-01-2006,05:00,35,R,ugm-3 (GRAV EQ),185,R,ugm-3,107,R,ugm-3,390,R,ugm-3
12-01-2006,06:00,43,R,ugm-3 (GRAV EQ),216,R,ugm-3,134,R,ugm-3,464,R,ugm-3
12-01-2006,07:00,48,R,ugm-3 (GRAV EQ),314,R,ugm-3,183,R,ugm-3,663,R,ugm-3
12-01-2006,08:00,53,R,ugm-3 (GRAV EQ),240,R,ugm-3,155,R,ugm-3,521,R,ugm-3
12-01-2006,09:00,51,R,ugm-3 (GRAV EQ),204,R,ugm-3,134,R,ugm-3,445,R,ugm-3
12-01-2006,10:00,46,R,ugm-3 (GRAV EQ),159,R,ugm-3,103,R,ugm-3,346,R,ugm-3
12-01-2006,11:00,44,R,ugm-3 (GRAV EQ),151,R,ugm-3,103,R,ugm-3,334,R,ugm-3
12-01-2006,12:00,43,R,ugm-3 (GRAV EQ),108,R,ugm-3,88,R,ugm-3,252,R,ugm-3
12-01-2006,13:00,49,R,ugm-3 (GRAV EQ),75,R,ugm-3,76,R,ugm-3,191,R,ugm-3
12-01-2006,14:00,49,R,ugm-3 (GRAV EQ),79,R,ugm-3,78,R,ugm-3,199,R,ugm-3
12-01-2006,15:00,55,R,ugm-3 (GRAV EQ),70,R,ugm-3,82,R,ugm-3,189,R,ugm-3
12-01-2006,16:00,56,R,ugm-3 (GRAV EQ),90,R,ugm-3,92,R,ugm-3,229,R,ugm-3
12-01-2006,17:00,48,R,ugm-3 (GRAV EQ),76,R,ugm-3,86,R,ugm-3,202,R,ugm-3
12-01-2006,18:00,53,R,ugm-3 (GRAV EQ),110,R,ugm-3,107,R,ugm-3,275,R,ugm-3
12-01-2006,19:00,53,R,ugm-3 (GRAV EQ),121,R,ugm-3,107,R,ugm-3,292,R,ugm-3
12-01-2006,20:00,42,R,ugm-3 (GRAV EQ),80,R,ugm-3,84,R,ugm-3,206,R,ugm-3
12-01-2006,21:00,40,R,ugm-3 (GRAV EQ),73,R,ugm-3,76,R,ugm-3,187,R,ugm-3
12-01-2006,22:00,40,R,ugm-3 (GRAV EQ),60,R,ugm-3,69,R,ugm-3,160,R,ugm-3
12-01-2006,23:00,38,R,ugm-3 (GRAV EQ),58,R,ugm-3,65,R,ugm-3,153,R,ugm-3
12-01-2006,24:00,33,R,ugm-3 (GRAV EQ),45,R,ugm-3,57,R,ugm-3,126,R,ugm-3
13-01-2006,01:00,23,R,ugm-3 (GRAV EQ),41,R,ugm-3,59,R,ugm-3,122,R,ugm-3
13-01-2006,02:00,21,R,ugm-3 (GRAV EQ),25,R,ugm-3,38,R,ugm-3,76,R,ugm-3
13-01-2006,03:00,23,R,ugm-3 (GRAV EQ),20,R,ugm-3,38,R,ugm-3,69,R,ugm-3
13-01-2006,04:00,21,R,ugm-3 (GRAV EQ),13,R,ugm-3,29,R,ugm-3,48,R,ugm-3
13-01-2006,05:00,18,R,ugm-3 (GRAV EQ),18,R,ugm-3,31,R,ugm-3,57,R,ugm-3
13-01-2006,06:00,25,R,ugm-3 (GRAV EQ),33,R,ugm-3,48,R,ugm-3,97,R,ugm-3
13-01-2006,07:00,39,R,ugm-3 (GRAV EQ),86,R,ugm-3,76,R,ugm-3,208,R,ugm-3
13-01-2006,08:00,59,R,ugm-3 (GRAV EQ),148,R,ugm-3,120,R,ugm-3,346,R,ugm-3
13-01-2006,09:00,69,R,ugm-3 (GRAV EQ),183,R,ugm-3,136,R,ugm-3,414,R,ugm-3
13-01-2006,10:00,59,R,ugm-3 (GRAV EQ),123,R,ugm-3,101,R,ugm-3,288,R,ugm-3
13-01-2006,11:00,51,R,ugm-3 (GRAV EQ),78,R,ugm-3,73,R,ugm-3,191,R,ugm-3
13-01-2006,12:00,59,R,ugm-3 (GRAV EQ),100,R,ugm-3,78,R,ugm-3,231,R,ugm-3
13-01-2006,13:00,56,R,ugm-3 (GRAV EQ),88,R,ugm-3,82,R,ugm-3,216,R,ugm-3
13-01-2006,14:00,52,R,ugm-3 (GRAV EQ),95,R,ugm-3,84,R,ugm-3,229,R,ugm-3
13-01-2006,15:00,59,R,ugm-3 (GRAV EQ),115,R,ugm-3,92,R,ugm-3,267,R,ugm-3
13-01-2006,16:00,60,R,ugm-3 (GRAV EQ),125,R,ugm-3,109,R,ugm-3,300,R,ugm-3
13-01-2006,17:00,57,R,ugm-3 (GRAV EQ),110,R,ugm-3,103,R,ugm-3,271,R,ugm-3
13-01-2006,18:00,57,R,ugm-3 (GRAV EQ),140,R,ugm-3,117,R,ugm-3,330,R,ugm-3
13-01-2006,19:00,55,R,ugm-3 (GRAV EQ),151,R,ugm-3,115,R,ugm-3,346,R,ugm-3
13-01-2006,20:00,47,R,ugm-3 (GRAV EQ),111,R,ugm-3,92,R,ugm-3,262,R,ugm-3
13-01-2006,21:00,42,R,ugm-3 (GRAV EQ),98,R,ugm-3,88,R,ugm-3,237,R,ugm-3
13-01-2006,22:00,39,R,ugm-3 (GRAV EQ),61,R,ugm-3,69,R,ugm-3,162,R,ugm-3
13-01-2006,23:00,40,R,ugm-3 (GRAV EQ),69,R,ugm-3,67,R,ugm-3,172,R,ugm-3
13-01-2006,24:00,44,R,ugm-3 (GRAV EQ),60,R,ugm-3,63,R,ugm-3,155,R,ugm-3
14-01-2006,01:00,44,R,ugm-3 (GRAV EQ),40,R,ugm-3,50,R,ugm-3,111,R,ugm-3
14-01-2006,02:00,42,R,ugm-3 (GRAV EQ),39,R,ugm-3,44,R,ugm-3,103,R,ugm-3
14-01-2006,03:00,40,R,ugm-3 (GRAV EQ),31,R,ugm-3,44,R,ugm-3,92,R,ugm-3
14-01-2006,04:00,38,R,ugm-3 (GRAV EQ),36,R,ugm-3,44,R,ugm-3,99,R,ugm-3
14-01-2006,05:00,36,R,ugm-3 (GRAV EQ),24,R,ugm-3,38,R,ugm-3,74,R,ugm-3
14-01-2006,06:00,40,R,ugm-3 (GRAV EQ),21,R,ugm-3,42,R,ugm-3,74,R,ugm-3
14-01-2006,07:00,36,R,ugm-3 (GRAV EQ),40,R,ugm-3,53,R,ugm-3,115,R,ugm-3
14-01-2006,08:00,44,R,ugm-3 (GRAV EQ),56,R,ugm-3,63,R,ugm-3,149,R,ugm-3
14-01-2006,09:00,47,R,ugm-3 (GRAV EQ),88,R,ugm-3,78,R,ugm-3,212,R,ugm-3
14-01-2006,10:00,49,R,ugm-3 (GRAV EQ),69,R,ugm-3,67,R,ugm-3,172,R,ugm-3
14-01-2006,11:00,52,R,ugm-3 (GRAV EQ),89,R,ugm-3,76,R,ugm-3,212,R,ugm-3
14-01-2006,12:00,47,R,ugm-3 (GRAV EQ),59,R,ugm-3,69,R,ugm-3,159,R,ugm-3
14-01-2006,13:00,52,R,ugm-3 (GRAV EQ),69,R,ugm-3,73,R,ugm-3,178,R,ugm-3
14-01-2006,14:00,51,R,ugm-3 (GRAV EQ),53,R,ugm-3,61,R,ugm-3,141,R,ugm-3
14-01-2006,15:00,49,R,ugm-3 (GRAV EQ),53,R,ugm-3,63,R,ugm-3,143,R,ugm-3
14-01-2006,16:00,59,R,ugm-3 (GRAV EQ),69,R,ugm-3,78,R,ugm-3,183,R,ugm-3